Regional Weather Roundup
Issued by NWS

Home | Current Version | Previous Version | Graphics & Text | Print | Product List | Glossary On
Versions: 1 2 3 4 5 6 7 8 9 10 11 12 13 14 15 16 17 18 19 20 21 22 23 24 25 26 27 28 29 30 31 32 33 34 35 36 37 38 39 40 41 42 43 44 45 46 47 48 49 50
000
ASUS43 KBIS 190210
RWRND

NORTH DAKOTA REGIONAL WEATHER ROUNDUP
NATIONAL WEATHER SERVICE BISMARCK ND
800 PM CST THU DEC 18 2014

NOTE: "FAIR" INDICATES FEW OR NO CLOUDS BELOW 12,000 FEET WITH NO
SIGNIFICANT WEATHER AND/OR OBSTRUCTIONS TO VISIBILITY.


NDZ001>003-009>011-017-190300-
NORTHWEST NORTH DAKOTA

CITY           SKY/WX    TMP DP  RH WIND       PRES   REMARKS
WILLISTON      CLOUDY    28  27  96 S6        29.94F
MINOT          CLOUDY    23  19  85 SE3       29.99S
MINOT AFB      CLOUDY    22  22  99 S5        29.99S WCI  16
$$

NDZ018>021-031>035-040>046-190300-
SOUTHWEST NORTH DAKOTA

CITY           SKY/WX    TMP DP  RH WIND       PRES   REMARKS
BISMARCK       CLOUDY    27  25  92 S7        30.03S FOG     WCI  19
DICKINSON      CLEAR     21  18  88 S8        29.92F FOG     WCI  11
GARRISON         N/A     26  22  84 CALM      29.98S
HETTINGER ARPT PTCLDY    23  20  88 CALM      29.97S
$$

NDZ004>008-012>016-024-026-027-054-190300-
NORTHEAST NORTH DAKOTA

CITY           SKY/WX    TMP DP  RH WIND       PRES   REMARKS
GRAND FORKS    CLOUDY    20  15  81 S13       30.15F WCI   7
GRND FRKS AFB  CLOUDY    19  19 100 S8        30.15S WCI   9
DEVILS LAKE    CLOUDY    21  12  68 S13       30.04S WCI   9
$$

NDZ022-023-025-028>030-036>039-047>053-190300-
SOUTHEAST NORTH DAKOTA

CITY           SKY/WX    TMP DP  RH WIND       PRES   REMARKS
FARGO          CLOUDY    21  15  78 S14       30.17F WCI   8
JAMESTOWN      CLOUDY    23  20  88 S12       30.07S WCI  12
$$



USA.gov is the U.S. government's official web portal to all federal, state and local government web resources and services.